When you browse on this site, cookies collect data to enhance your experience and personalize the content and advertising you see.
Visit our Privacy Policy to learn more. By continuing to use the site, you agree to this use of cookies and data.
  • In Schweiz
  • Länderverzeichnis
  • Für 7 Tage
  • Wassertemperatur
  • Wetterkarte
  • Widgets
  • user-avatar
    Anmelden

    Stündliche Wetter Kirowckoe

    Heute, 25 Februar, Dienstag

    Zeit Temperatur Niederschläge Wind Luftdruck Luftfeuchtigkeit
    00:00 0°C° 0.6 mm 5 m/S 721 mmHg 97%
    01:00 -2°C° 0.8 mm 7 m/S 722 mmHg 97%
    02:00 -3°C° 0.8 mm 9 m/S 723 mmHg 96%
    03:00 -4°C° 0.8 mm 10 m/S 724 mmHg 96%
    04:00 -4°C° 0.6 mm 10 m/S 725 mmHg 95%
    05:00 -4°C° 0.6 mm 10 m/S 727 mmHg 94%
    06:00 -4°C° 0.6 mm 11 m/S 728 mmHg 92%
    07:00 -4°C° 0 mm 10 m/S 729 mmHg 89%
    08:00 -4°C° 0 mm 10 m/S 731 mmHg 86%
    09:00 -4°C° 0 mm 9 m/S 732 mmHg 83%
    10:00 -3°C° 0 mm 9 m/S 733 mmHg 80%
    11:00 -3°C° 0 mm 9 m/S 734 mmHg 78%
    12:00 -1°C° 0 mm 8 m/S 735 mmHg 76%
    13:00 -1°C° 0 mm 8 m/S 736 mmHg 71%
    14:00 0°C° 0 mm 7 m/S 736 mmHg 66%
    15:00 +1°C° 0 mm 6 m/S 736 mmHg 62%
    16:00 +1°C° 0 mm 5 m/S 737 mmHg 65%
    17:00 0°C° 0 mm 4 m/S 737 mmHg 68%
    18:00 0°C° 0 mm 3 m/S 737 mmHg 71%
    19:00 0°C° 0 mm 3 m/S 737 mmHg 72%
    20:00 -1°C° 0 mm 3 m/S 738 mmHg 74%
    21:00 -1°C° 0 mm 3 m/S 738 mmHg 75%
    22:00 -1°C° 0 mm 3 m/S 738 mmHg 76%
    23:00 -1°C° 0 mm 3 m/S 738 mmHg 76%

    Morgen, 26 Februar, Mittwoch

    Zeit Temperatur Niederschläge Wind Luftdruck Luftfeuchtigkeit
    00:00 -1°C° 0 mm 3 m/S 737 mmHg 77%
    01:00 -1°C° 0 mm 3 m/S 737 mmHg 80%
    02:00 -1°C° 0 mm 3 m/S 737 mmHg 83%
    03:00 -1°C° 0 mm 3 m/S 737 mmHg 86%
    04:00 -2°C° 0 mm 4 m/S 737 mmHg 87%
    05:00 -2°C° 0 mm 4 m/S 736 mmHg 88%
    06:00 -1°C° 0 mm 4 m/S 736 mmHg 89%
    07:00 -1°C° 0 mm 5 m/S 736 mmHg 88%
    08:00 -1°C° 0 mm 6 m/S 736 mmHg 87%
    09:00 -1°C° 0 mm 7 m/S 736 mmHg 86%
    10:00 +2°C° 0 mm 7 m/S 735 mmHg 80%
    11:00 +2°C° 0 mm 8 m/S 735 mmHg 73%
    12:00 +4°C° 0 mm 8 m/S 735 mmHg 67%
    13:00 +4°C° 0 mm 8 m/S 734 mmHg 66%
    14:00 +5°C° 0 mm 9 m/S 734 mmHg 64%
    15:00 +5°C° 0 mm 9 m/S 734 mmHg 63%
    16:00 +3°C° 0 mm 9 m/S 733 mmHg 65%
    17:00 +4°C° 0 mm 8 m/S 733 mmHg 67%
    18:00 +2°C° 0 mm 8 m/S 733 mmHg 70%
    19:00 +2°C° 0 mm 8 m/S 733 mmHg 72%
    20:00 +1°C° 0 mm 8 m/S 733 mmHg 75%
    21:00 +1°C° 0 mm 8 m/S 732 mmHg 77%
    22:00 +2°C° 0 mm 7 m/S 732 mmHg 78%
    23:00 +2°C° 0 mm 7 m/S 732 mmHg 78%

    übermorgen, 27 Februar, Donnerstag

    Zeit Temperatur Niederschläge Wind Luftdruck Luftfeuchtigkeit
    00:00 0°C° 0 mm 7 m/S 732 mmHg 78%
    01:00 0°C° 0 mm 7 m/S 731 mmHg 77%
    02:00 +1°C° 0 mm 6 m/S 731 mmHg 76%
    03:00 +1°C° 0 mm 6 m/S 731 mmHg 76%
    04:00 +2°C° 0 mm 6 m/S 730 mmHg 76%
    05:00 +2°C° 0 mm 6 m/S 730 mmHg 77%
    06:00 +2°C° 0 mm 6 m/S 730 mmHg 78%
    07:00 +3°C° 0 mm 6 m/S 730 mmHg 78%
    08:00 +3°C° 0 mm 7 m/S 730 mmHg 79%
    09:00 +4°C° 0 mm 7 m/S 730 mmHg 80%
    10:00 +5°C° 0 mm 7 m/S 729 mmHg 76%
    11:00 +7°C° 0 mm 8 m/S 729 mmHg 71%
    12:00 +9°C° 0 mm 8 m/S 729 mmHg 67%
    13:00 +10°C° 0 mm 9 m/S 729 mmHg 67%
    14:00 +10°C° 0 mm 9 m/S 729 mmHg 67%
    15:00 +11°C° 0 mm 9 m/S 729 mmHg 67%
    16:00 +10°C° 0 mm 8 m/S 729 mmHg 71%
    17:00 +10°C° 0 mm 7 m/S 729 mmHg 76%
    18:00 +9°C° 0 mm 6 m/S 728 mmHg 81%
    19:00 +9°C° 0 mm 6 m/S 729 mmHg 82%
    20:00 +8°C° 0 mm 6 m/S 729 mmHg 83%
    21:00 +8°C° 0 mm 6 m/S 729 mmHg 85%
    22:00 +8°C° 0 mm 6 m/S 729 mmHg 84%
    23:00 +7°C° 0 mm 5 m/S 728 mmHg 83%

    28 Februar, Freitag

    Zeit Temperatur Niederschläge Wind Luftdruck Luftfeuchtigkeit
    00:00 +7°C° 0 mm 4 m/S 728 mmHg 82%
    01:00 +7°C° 0 mm 4 m/S 728 mmHg 83%
    02:00 +6°C° 0 mm 5 m/S 727 mmHg 84%
    03:00 +5°C° 0 mm 5 m/S 727 mmHg 85%
    04:00 +5°C° 0.6 mm 5 m/S 726 mmHg 87%
    05:00 +5°C° 0.6 mm 5 m/S 726 mmHg 89%
    06:00 +4°C° 0.6 mm 6 m/S 725 mmHg 91%
    07:00 +4°C° 0.7 mm 7 m/S 725 mmHg 89%
    08:00 +4°C° 0.7 mm 8 m/S 725 mmHg 86%
    09:00 +4°C° 0.7 mm 8 m/S 725 mmHg 84%
    10:00 +3°C° 0 mm 9 m/S 726 mmHg 82%
    11:00 +2°C° 0 mm 9 m/S 726 mmHg 80%
    12:00 +2°C° 0 mm 9 m/S 726 mmHg 78%
    13:00 +1°C° 0.1 mm 10 m/S 728 mmHg 78%
    14:00 +1°C° 0.1 mm 10 m/S 729 mmHg 79%
    15:00 0°C° 0.1 mm 10 m/S 730 mmHg 80%
    16:00 0°C° 0 mm 9 m/S 731 mmHg 76%
    17:00 0°C° 0 mm 7 m/S 732 mmHg 72%
    18:00 +1°C° 0 mm 5 m/S 734 mmHg 67%
    19:00 +1°C° 0 mm 4 m/S 734 mmHg 70%
    20:00 0°C° 0 mm 4 m/S 735 mmHg 72%
    21:00 +1°C° 0 mm 3 m/S 736 mmHg 75%
    22:00 0°C° 0 mm 3 m/S 736 mmHg 76%
    23:00 +1°C° 0 mm 2 m/S 736 mmHg 77%

    29 Februar, Samstag

    Zeit Temperatur Niederschläge Wind Luftdruck Luftfeuchtigkeit
    00:00 +1°C° 0 mm 2 m/S 736 mmHg 77%
    01:00 -1°C° 0 mm 2 m/S 736 mmHg 78%
    02:00 -1°C° 0 mm 2 m/S 736 mmHg 78%
    03:00 -1°C° 0 mm 2 m/S 735 mmHg 78%
    04:00 -1°C° 0 mm 2 m/S 735 mmHg 79%
    05:00 -1°C° 0 mm 3 m/S 735 mmHg 81%
    06:00 -1°C° 0 mm 3 m/S 735 mmHg 82%
    07:00 0°C° 0 mm 3 m/S 735 mmHg 85%
    08:00 0°C° 0 mm 3 m/S 735 mmHg 87%
    09:00 +1°C° 0 mm 3 m/S 734 mmHg 89%
    10:00 0°C° 0.4 mm 4 m/S 734 mmHg 90%
    11:00 0°C° 0.4 mm 5 m/S 733 mmHg 90%
    12:00 0°C° 0.4 mm 5 m/S 733 mmHg 91%
    13:00 -1°C° 0.5 mm 6 m/S 732 mmHg 92%
    14:00 -1°C° 0.5 mm 7 m/S 732 mmHg 94%
    15:00 -1°C° 0.5 mm 7 m/S 731 mmHg 96%
    16:00 -1°C° 0.9 mm 7 m/S 731 mmHg 96%
    17:00 -1°C° 0.9 mm 7 m/S 731 mmHg 96%
    18:00 -1°C° 0.9 mm 7 m/S 730 mmHg 96%
    19:00 -1°C° 0.6 mm 7 m/S 731 mmHg 96%
    20:00 -1°C° 0.6 mm 7 m/S 731 mmHg 96%
    21:00 -1°C° 0.6 mm 7 m/S 731 mmHg 96%
    22:00 -1°C° 0.1 mm 7 m/S 731 mmHg 95%
    23:00 -2°C° 0.1 mm 8 m/S 731 mmHg 95%

    1 März, Sonntag

    Zeit Temperatur Niederschläge Wind Luftdruck Luftfeuchtigkeit
    00:00 -3°C° 0.1 mm 9 m/S 731 mmHg 95%
    01:00 -3°C° 0.4 mm 9 m/S 732 mmHg 94%
    02:00 -4°C° 0.4 mm 9 m/S 732 mmHg 93%
    03:00 -4°C° 0.4 mm 9 m/S 733 mmHg 92%
    04:00 -4°C° 0 mm 9 m/S 733 mmHg 88%
    05:00 -4°C° 0 mm 9 m/S 734 mmHg 84%
    06:00 -4°C° 0 mm 8 m/S 735 mmHg 80%
    07:00 -4°C° 0 mm 8 m/S 735 mmHg 78%
    08:00 -4°C° 0 mm 8 m/S 736 mmHg 76%
    09:00 -4°C° 0 mm 8 m/S 737 mmHg 74%
    10:00 -2°C° 0 mm 8 m/S 737 mmHg 68%
    11:00 -1°C° 0 mm 8 m/S 738 mmHg 62%
    12:00 0°C° 0 mm 8 m/S 738 mmHg 56%
    13:00 +2°C° 0 mm 7 m/S 739 mmHg 54%
    14:00 +2°C° 0 mm 7 m/S 739 mmHg 51%
    15:00 +3°C° 0 mm 6 m/S 739 mmHg 49%
    16:00 +2°C° 0 mm 5 m/S 739 mmHg 53%
    17:00 +3°C° 0 mm 4 m/S 739 mmHg 57%
    18:00 +3°C° 0 mm 2 m/S 739 mmHg 61%
    19:00 +3°C° 0 mm 2 m/S 739 mmHg 64%
    20:00 +2°C° 0 mm 2 m/S 739 mmHg 67%
    21:00 +2°C° 0 mm 2 m/S 739 mmHg 69%
    22:00 +2°C° 0 mm 2 m/S 739 mmHg 74%
    23:00 +1°C° 0 mm 3 m/S 739 mmHg 79%
    Mehr zeigen